This is the latest recevied weather packets stored in our database for station/object N4QD-13. If no packets are shown the sender has not sent any weather packets the latest 1 day(s).
| Time | Temp. | Humidity | Pressure | Rain* | Wind** | Luminosity | Snow |
|---|---|---|---|---|---|---|---|
| 1777997492 | 25.56° C | 43% | 1013.6 hPa | 0 mm | 3.13 m/s, 335° | 734 W/m² | - |
| 1777997189 | 24.44° C | 44% | 1013.9 hPa | 0 mm | 3.58 m/s, 93° | 730 W/m² | - |
| 1777996887 | 25° C | 44% | 1013.9 hPa | 0 mm | 2.24 m/s, 268° | 736 W/m² | - |
| 1777996583 | 25° C | 47% | 1014 hPa | 0 mm | 1.34 m/s, 101° | 744 W/m² | - |
| 1777996279 | 24.44° C | 46% | 1014 hPa | 0 mm | 2.68 m/s, 354° | 736 W/m² | - |
| 1777995975 | 25° C | 47% | 1014.2 hPa | 0 mm | 2.24 m/s, 39° | 720 W/m² | - |
| 1777995671 | 24.44° C | 48% | 1014.1 hPa | 0 mm | 2.68 m/s, 301° | 713 W/m² | - |
| 1777995369 | 24.44° C | 47% | 1014.3 hPa | 0 mm | 3.13 m/s, 0° | 705 W/m² | - |
| 1777995066 | 24.44° C | 49% | 1014.1 hPa | 0 mm | 1.34 m/s, 104° | 688 W/m² | - |
| 1777994773 | 23.89° C | 49% | 1014.2 hPa | 0 mm | 3.13 m/s, 57° | 652 W/m² | - |
| 1777994458 | 23.89° C | 49% | 1014.6 hPa | 0 mm | 2.24 m/s, 70° | 655 W/m² | - |
| 1777994154 | 23.89° C | 50% | 1014.6 hPa | 0 mm | 1.79 m/s, 81° | 677 W/m² | - |
| 1777993852 | 23.89° C | 50% | 1014.4 hPa | 0 mm | 2.68 m/s, 41° | 670 W/m² | - |
| 1777993548 | 23.89° C | 49% | 1014.4 hPa | 0 mm | 2.24 m/s, 321° | 654 W/m² | - |
| 1777993244 | 23.89° C | 50% | 1014.2 hPa | 0 mm | 1.79 m/s, 67° | 634 W/m² | - |
| 1777992940 | 23.89° C | 49% | 1014.2 hPa | 0 mm | 3.58 m/s, 304° | 612 W/m² | - |
| 1777992639 | 23.89° C | 51% | 1014.3 hPa | 0 mm | 3.13 m/s, 323° | 629 W/m² | - |
| 1777992336 | 23.89° C | 52% | 1014.2 hPa | 0 mm | 3.58 m/s, 75° | 630 W/m² | - |
| 1777992033 | 23.89° C | 52% | 1014.3 hPa | 0 mm | 0.89 m/s, 42° | 609 W/m² | - |
| 1777991731 | 23.33° C | 53% | 1014 hPa | 0 mm | 0.45 m/s, 10° | 610 W/m² | - |
| 1777991428 | 23.33° C | 53% | 1014.1 hPa | 0 mm | 1.34 m/s, 90° | 592 W/m² | - |
| 1777991125 | 22.78° C | 53% | 1014 hPa | 0 mm | 1.79 m/s, 96° | 574 W/m² | - |
| 1777990822 | 22.78° C | 53% | 1014.2 hPa | 0 mm | 0.89 m/s, 96° | 568 W/m² | - |
| 1777990520 | 22.78° C | 52% | 1014 hPa | 0 mm | 2.24 m/s, 51° | 563 W/m² | - |
| 1777990216 | 22.78° C | 54% | 1014.3 hPa | 0 mm | 2.24 m/s, 310° | 552 W/m² | - |
* Rain latest hour (hover to see other rain measurements)
** Current wind speed in m/s (hover to see current wind gust speed)